LRCK Weather Reports


Display with metric or nautical units.
time (UTC)temp
F
wind
direction
speed
MPH
gust
MPH
rain 1hr
in
rain 24hr
in
rain mn
in
humidity
%
barometer
mb
20260502214817 41 20 7.0 0.0 0.00 0.00 0.00 87 1022.0
20260502213317 41 20 7.0 0.0 0.00 0.00 0.00 87 1022.0
20260502211817 39 360 9.0 0.0 0.00 0.00 0.00 87 1022.0
20260502210317 39 360 9.0 0.0 0.00 0.00 0.00 87 1022.0
20260502204817 39 10 8.0 0.0 0.00 0.00 0.00 87 1022.0
20260502203317 39 10 8.0 0.0 0.00 0.00 0.00 87 1022.0
20260502201817 37 10 9.0 0.0 0.00 0.00 0.00 93 1022.0
20260502200317 37 10 9.0 0.0 0.00 0.00 0.00 93 1022.0
20260502194817 39 10 8.0 0.0 0.00 0.00 0.00 87 1022.0
20260502193317 39 10 8.0 0.0 0.00 0.00 0.00 87 1022.0
20260502191817 39 20 8.0 0.0 0.00 0.00 0.00 93 1022.0
20260502190317 39 20 8.0 0.0 0.00 0.00 0.00 93 1022.0
20260502184817 41 20 6.0 0.0 0.00 0.00 0.00 87 1022.0
20260502183317 41 20 6.0 0.0 0.00 0.00 0.00 87 1022.0
20260502181817 41 30 6.0 0.0 0.00 0.00 0.00 87 1021.0
20260502180317 41 30 6.0 0.0 0.00 0.00 0.00 87 1021.0
20260502170317 45 50 7.0 0.0 0.00 0.00 0.00 81 1021.0
20260502163317 46 40 7.0 0.0 0.00 0.00 0.00 76 1021.0
20260502161817 50 360 7.0 0.0 0.00 0.00 0.00 62 1021.0
20260502160318 50 360 7.0 0.0 0.00 0.00 0.00 62 1021.0
20260502151817 48 290 10.0 0.0 0.00 0.00 0.00 71 1021.0
20260502150317 48 290 10.0 0.0 0.00 0.00 0.00 71 1021.0
20260502130317 50 2.0 0.0 0.00 0.00 0.00 71 1022.0
20260502123317 48 0 0.0 0.0 0.00 0.00 0.00 82 1022.0
20260502121817 46 280 5.0 0.0 0.00 0.00 0.00 82 1022.0
20260502120325 46 280 5.0 0.0 0.00 0.00 0.00 82 1022.0
20260502113316 45 350 15.0 0.0 0.00 0.00 0.00 81 1023.0
20260502111817 54 240 9.0 0.0 0.00 0.00 0.00 58 1022.0
20260502110317 54 240 9.0 0.0 0.00 0.00 0.00 58 1022.0
20260502104817 52 230 10.0 0.0 0.00 0.00 0.00 67 1022.0
20260502103317 52 230 10.0 0.0 0.00 0.00 0.00 67 1022.0
20260502101814 50 240 9.0 0.0 0.00 0.00 0.00 71 1022.0
20260502100317 50 240 9.0 0.0 0.00 0.00 0.00 71 1022.0
20260502090317 52 70 8.0 0.0 0.00 0.00 0.00 54 1022.0
20260502070318 50 330 6.0 0.0 0.00 0.00 0.00 58 1022.0
20260502064817 50 330 8.0 0.0 0.00 0.00 0.00 54 1022.0
20260502063317 50 330 8.0 0.0 0.00 0.00 0.00 54 1022.0
20260502061817 48 320 9.0 0.0 0.00 0.00 0.00 58 1022.0
20260502060317 48 320 9.0 0.0 0.00 0.00 0.00 58 1022.0
20260502054817 46 310 7.0 0.0 0.00 0.00 0.00 66 1022.0
20260502053317 46 310 7.0 0.0 0.00 0.00 0.00 66 1022.0
20260502051817 43 300 6.0 0.0 0.00 0.00 0.00 76 1022.0
20260502050317 43 300 6.0 0.0 0.00 0.00 0.00 76 1022.0
20260502044817 41 300 7.0 0.0 0.00 0.00 0.00 81 1022.0
20260502043317 41 300 7.0 0.0 0.00 0.00 0.00 81 1022.0
20260502041817 39 290 8.0 0.0 0.00 0.00 0.00 81 1022.0
20260502040317 39 290 8.0 0.0 0.00 0.00 0.00 81 1022.0
20260502034933 39 290 8.0 0.0 0.00 0.00 0.00 81 1022.0
20260502033316 39 290 8.0 0.0 0.00 0.00 0.00 81 1022.0
20260502031817 37 290 8.0 0.0 0.00 0.00 0.00 81 1022.0
20260502030317 37 290 8.0 0.0 0.00 0.00 0.00 81 1022.0
20260502024817 37 290 8.0 0.0 0.00 0.00 0.00 81 1022.0
20260502023317 37 290 8.0 0.0 0.00 0.00 0.00 81 1022.0
20260502021817 36 290 8.0 0.0 0.00 0.00 0.00 87 1022.0
20260502020317 36 290 8.0 0.0 0.00 0.00 0.00 87 1022.0
20260502014817 36 290 9.0 0.0 0.00 0.00 0.00 81 1022.0
20260502013317 36 290 9.0 0.0 0.00 0.00 0.00 81 1022.0
20260502011818 37 290 8.0 0.0 0.00 0.00 0.00 75 1023.0
20260502010317 37 290 8.0 0.0 0.00 0.00 0.00 75 1023.0
20260502004817 36 290 8.0 0.0 0.00 0.00 0.00 81 1023.0
20260502003317 36 290 8.0 0.0 0.00 0.00 0.00 81 1023.0
20260502001817 36 290 8.0 0.0 0.00 0.00 0.00 81 1023.0
20260502000317 36 290 8.0 0.0 0.00 0.00 0.00 81 1023.0
20260501234827 36 290 8.0 0.0 0.00 0.00 0.00 81 1023.0
20260501233318 36 290 8.0 0.0 0.00 0.00 0.00 81 1023.0
20260501231817 36 280 7.0 0.0 0.00 0.00 0.00 81 1023.0
20260501230317 36 280 7.0 0.0 0.00 0.00 0.00 81 1023.0
20260501224817 36 270 7.0 0.0 0.00 0.00 0.00 81 1024.0
20260501223317 36 270 7.0 0.0 0.00 0.00 0.00 81 1024.0
20260501221817 37 280 7.0 0.0 0.00 0.00 0.00 81 1024.0
20260501220316 37 280 7.0 0.0 0.00 0.00 0.00 81 1024.0